Погода в Куле

Турция     38°32′25″N   28°38′29″E
темп.,
°C
ветер,
м/с
пор.,
м/с
влажн.,
%
обл.,
%
осадки,
мм/ч
давл.,
гПа
погр.,
м
28 февраля, вс
вс2800:00+7зсз12760 0.0 101822
03:00+5сз11830 0.0 101822
06:00+5ссз12830 0.0 101922
09:00+7с22720 0.0 1020100
12:00+11ссв46510 0.0 10211058
15:00+12ссв66450 0.0 10201478
18:00+10св775354 0.0 10211009
21:00+5ссв367342 0.0 1024299
1 марта, пн
пн100:00+3св36630 0.0 1026220
03:00+1св34660 0.0 102595
06:00−1всв34780 0.0 102590
09:00+1всв36650 0.0 1025416
12:00+5всв34410 0.0 1023781
15:00+9ссв34280 0.0 10211276
18:00+8сз55350 0.0 10211185
21:00+3сз22650 0.0 102423
2 марта, вт
вт200:00+2с23640 0.0 102535
03:00+1с23710 0.0 102641
06:000ссз238042 0.0 102635
09:00+2с377324 0.0 1026501
12:00+6ссв895035 0.0 10261431
15:00+8ссв10114260 0.0 10241946
18:00+6ссв10124798 0.1 10241745
21:00+2с496963 0.1 1026313
3 марта, ср
ср300:00+1ссз33820 0.0 102649
03:000ссз22890 0.0 102625
06:00−1с23900 0.0 102632
09:00+1ссв24700 0.0 1027437
12:00+6ссв57360 0.0 1025948
15:00+11ссв89300 0.0 10231464
18:00+10ссв79390 0.0 10231001
21:00+5ссв33580 0.0 102630
4 марта, чт
чт400:00+2всв23720 0.0 102723
03:000всв23830 0.0 102622
06:00−1всв23820 0.0 102527
09:00+2всв23640 0.0 1025130
12:00+8всв23350 0.0 1022522
15:00+12св11260 0.0 1019790
18:00+12сз12350 0.0 1018110
21:00+5зюз11500 0.0 102022